Back to catalog

STARLINK-37316

AliveCommunicationsSSO
NORAD 68673·PAYLOAD·🇺🇸 United States

Launched Apr 11, 2026 from Vandenberg Space Force Base

Loading…

Next Passes (next 24 hours)

TLE

FreshSource: CelesTrak SupGP

Epoch: Sep 14, 2026, 22:58 UTC

1 68673C 26077M   26257.95743056  .00065978  00000+0  20488-2 0  2578
2 68673  97.2845 127.9246 0002169  94.0163 247.6714 15.33392845    14

Track STARLINK-37316 in real time with AllMySat

Download on the App Store